Capitol Logistics 207


KRFD
Chicago/Rockford International Airport
Rockford, Illinois, US
KMIA
Miami International Airport
Miami, Florida, US

Activity Log

Date Flight Route Aircraft Duration
01/22/2021 CPX207 BVT J89 ATL J45 OMN HILEY7 B763 2h 37m
05/12/2020 CPX207 JERKY JOT TTH GQO AMG OMN MLB ANNEY4 B763 2h 48m
01/13/2020 CPX207 BVT J89 ATL J45 OMN HILEY7 B763 2h 56m
12/31/2019 CPX451 OBK J89 IIU J99 IRQ J53 ORL V159 TRV B738 3h 00m
12/30/2019 CPX207 BVT J89 ATL J45 OMN HILEY7 B763 3h 24m
11/28/2019 CPX451 BVT J89 ATL J45 OMN HILEY7 B738 2h 47m
07/06/2019 CPX207 BVT J89 ATL J45 OMN HILEY7 B763 3h 10m
05/10/2019 CPX207 BVT J89 ATL J45 OMN HILEY7 B763 2h 50m
12/08/2018 CPX351 JOT LVT TAY SSCOT5 B752 2h 46m
11/29/2018 CPX351 JOT LVT TAY SSCOT4 B752 2h 52m

Route Details

Aircraft Information
Primary: Boeing 767-300BDSF
Backup: Not Available
Route Data
Distance: 1160nm
Sched. Duration: 2h 50m
Avg. Duration: 2h 67m (+17m)
Times Flown: 10
Recm'd Route: BVT J89 ATL J45 OMN HILEY7
Planned Altitude: 36,000ft
Origin Wx: KRFD 271654Z 35010KT 10SM BKN250 M07/M13 A3041 RMK AO2 SLP310 T10671133
Dest. Wx: KMIA 271653Z 24009KT 10SM FEW035 SCT045 28/19 A3009 RMK AO2 SLP189 T02780189 $
Notes:

Financial History
Total Freight: 720,882lbs
Average Load: 72,088lbs/flt
Fuel Used: 473,570lbs
Avg. Fuel Used: 47,357lbs/flt
Fuel Expense: $346,565
Avg. Fuel Expense: $34,657
Avg. Fuel Cost: $0.73/lbs
Total Gross Income: $1,007,817
Pilot Pay: $1,190
Total Expenses: $109,364
Total Revenue: $546,927
Average Revenue: $100,781.75